| time (UTC) | temp F | wind direction | speed MPH | gust MPH | rain 1hr in | rain 24hr in | rain mn in | humidity % | barometer mb |
| 20260506131802 | 66 | 220 | 12.0 | 0.0 | 0.00 | 0.00 | 0.00 | 59 | |
| 20260506121801 | 64 | 240 | 12.0 | 0.0 | 0.00 | 0.00 | 0.00 | 67 | |
| 20260506111745 | 59 | 210 | 18.0 | 0.0 | 0.00 | 0.00 | 0.00 | 77 | |
| 20260506101946 | 59 | 230 | 14.0 | 0.0 | 0.00 | 0.00 | 0.00 | 82 | |
| 20260506091746 | 55 | 240 | 16.0 | 26.0 | 0.00 | 0.00 | 0.00 | 87 | |
| 20260506081744 | 52 | 250 | 16.0 | 26.0 | 0.00 | 0.00 | 0.00 | 99 | |
| 20260506071745 | 50 | 250 | 22.0 | 33.0 | 0.00 | 0.00 | 0.00 | 99 | |
| 20260506061746 | 48 | 250 | 26.0 | 0.0 | 0.00 | 0.00 | 0.00 | 99 | |
| 20260506041944 | 46 | 240 | 22.0 | 0.0 | 0.00 | 0.00 | 0.00 | 99 | |
| 20260506031746 | 48 | 220 | 22.0 | 0.0 | 0.00 | 0.00 | 0.00 | 99 | |
| 20260506021745 | 48 | 240 | 20.0 | 0.0 | 0.00 | 0.00 | 0.00 | 99 | |
| 20260506011846 | 48 | 240 | 18.0 | 0.0 | 0.00 | 0.00 | 0.00 | 99 | |
| 20260506001744 | 50 | 250 | 14.0 | 0.0 | 0.00 | 0.00 | 0.00 | 93 | |
| 20260505231745 | 50 | 270 | 12.0 | 0.0 | 0.00 | 0.00 | 0.00 | 93 | |
| 20260505221745 | 48 | 260 | 36.0 | 0.0 | 0.00 | 0.00 | 0.00 | 99 | |
| 20260505211801 | 48 | 260 | 45.0 | 0.0 | 0.00 | 0.00 | 0.00 | 99 | |
| 20260505201800 | 55 | 40 | 16.0 | 0.0 | 0.00 | 0.00 | 0.00 | 93 | |
| 20260505191817 | 55 | 40 | 16.0 | 26.0 | 0.00 | 0.00 | 0.00 | 93 | |
| 20260505181802 | 57 | 20 | 24.0 | 0.0 | 0.00 | 0.00 | 0.00 | 87 | |
| 20260505171745 | 57 | 10 | 24.0 | 0.0 | 0.00 | 0.00 | 0.00 | 87 | |
| 20260505161845 | 61 | 20 | 18.0 | 0.0 | 0.00 | 0.00 | 0.00 | 82 | |
| 20260505151744 | 64 | 10 | 18.0 | 29.0 | 0.00 | 0.00 | 0.00 | 72 |